Regional Weather Roundup
Issued by NWS

Home | Current Version | Previous Version | Graphics & Text | Print | Product List | Glossary Off
Versions: 1 2 3 4 5 6 7 8 9 10 11 12 13 14 15 16 17 18 19 20 21 22 23 24 25 26 27 28 29 30 31 32 33 34 35 36 37 38 39 40 41 42 43 44 45 46 47 48 49 50

000
ASUS43 KMKX 011921
RWRWI

WISCONSIN REGIONAL WEATHER ROUNDUP
NATIONAL WEATHER SERVICE MILWAUKEE/SULLIVAN WI
100 PM CST SUN FEB 01 2015

NOTE: "FAIR" INDICATES FEW OR NO CLOUDS BELOW 12,000 FEET WITH NO
SIGNIFICANT WEATHER AND/OR OBSTRUCTIONS TO VISIBILITY.

WIZ001-002-006>008-014>016-023>028-012000-
NORTHWEST WISCONSIN

CITY           SKY/WX    TMP DP  RH WIND       PRES   REMARKS
SUPERIOR ARPT  MOSUNNY   11  -6  46 NE12G18   30.36F WCI  -3
ASHLAND        CLOUDY    10   3  73 N18       30.32F WCI  -8
HAYWARD        LGT SNOW  11   2  67 N17       30.24F WCI  -6
SIREN          PTSUNNY   14   1  58 NE13G23   30.27F WCI  -1
CUMBERLAND     CLOUDY    12   3  67 N15G21    30.20F WCI  -4
RICE LAKE      CLOUDY    15   3  58 N17G23    30.22F WCI  -2
CHETEK         CLOUDY    14   0  53 N12       30.20F WCI   1
LADYSMITH      CLOUDY    13   1  58 NE15G26   30.21F WCI  -3
EAU CLAIRE     CLOUDY    14   0  53 NE15G24   30.17F WCI  -1
MENOMONIE      CLOUDY    15   0  52 N15G23    30.19F WCI   0
NEW RICHMOND   CLOUDY    15   4  60 NE16      30.22F WCI   0
OSCEOLA        CLOUDY    15   4  60 NE15G24   30.27F WCI   0
$$

WIZ003>005-009-010-017-018-012000-
NORTH CENTRAL WISCONSIN

CITY           SKY/WX    TMP DP  RH WIND       PRES   REMARKS
MANITOWISH WTR CLOUDY     9  -2  62 NE13G18   30.18F WCI  -7
ARBOR VITAE    CLOUDY    11   1  62 NE10G17   30.17F WCI  -2
WOODRUFF       CLOUDY    11   1  62 NE10G17   30.17F WCI  -2
RHINELANDER    CLOUDY     9  -1  64 NE10G20   30.15F WCI  -5
EAGLE RIVER    CLOUDY     9  -2  60 NE10G20   30.16F WCI  -5
LAND O LAKES   CLOUDY    10   1  67 N8        30.18F WCI  -3
PHILLIPS       PTSUNNY    9  -1  63 NE15G22   30.17F WCI  -7
TOMAHAWK       CLOUDY    11  -1  59 NE8G16    30.16F WCI  -1
MEDFORD        CLOUDY    11   0  61 NE12      30.12F WCI  -3
MERRILL        CLOUDY    12   1  60 NE15G22   30.14F WCI  -4
$$

WIZ029-030-035-036-043>047-012000-
CENTRAL WISCONSIN

CITY           SKY/WX    TMP DP  RH WIND       PRES   REMARKS
WAUSAU         CLOUDY    12   1  61 NE16G23   30.12F WCI  -5
MOSINEE        MOSUNNY   12   3  67 NE15G22   30.13F WCI  -4
MARSHFIELD     CLOUDY    13   2  61 NE17G23   30.11F WCI  -4
STEVENS POINT  CLOUDY    10   0  64 NE17      30.13S WCI  -8
WAUPACA        CLOUDY    13   3  64 NE15G22   30.14S HAZE    WCI  -3
WAUTOMA        LGT SNOW  12   5  73 NE15G29   30.09F WCI  -4
WISC RAPIDS    CLOUDY    13   0  56 NE15G22   30.12F WCI  -3
CAMP DOUGLAS   LGT SNOW  14  12  92 NE15G24   30.09F VSB 1   WCI  -1
$$

WIZ011>013-019>022-031-037>040-048>050-012000-
NORTHEAST WISCONSIN

CITY           SKY/WX    TMP DP  RH WIND       PRES   REMARKS
ANTIGO         CLOUDY    10   2  70 NE18      30.11F WCI  -8
SHAWANO        CLOUDY    13  -1  55 NE18G25   30.18F WCI  -5
OCONTO         CLOUDY     9  -1  64 NE13G24   30.20F WCI  -7
STURGEON BAY   CLOUDY    10   3  72 N18G26    30.17F WCI  -8
GREEN BAY      MIX PCPN  10   3  73 NE29G38   30.15F WCI -12
MANITOWOC      LGT SNOW  18  14  86 NE14G28   30.07F VSB 1   WCI   4
APPLETON       LGT SNOW  10   3  72 NE22G30   30.09F WCI  -9
CLINTONVILLE   CLOUDY    12   0  57 NE17G25   30.16F WCI  -5
OSHKOSH        SNOW      11   6  81 N24G35    30.07F VSB 1/2 WCI  -9
$$

WIZ032>034-041-042-053>061-012000-
SOUTHWEST WISCONSIN

CITY           SKY/WX    TMP DP  RH WIND       PRES   REMARKS
LA CROSSE      LGT SNOW  16   9  74 N12       30.10F WCI   3
SPARTA         LGT SNOW  15   9  76 NE15      30.10F WCI   0
VIROQUA        CLOUDY    14   9  80 NE21G31   30.00F WCI  -4
BOSCOBEL       LGT SNOW  18  11  74 NE16G24   30.00F VSB 1   WCI   3
PRAIRIE DU CHI MIX PCPN  18  11  74 N12G23    30.00F WCI   6
PLATTEVILLE    CLOUDY    18  15  88 N29       29.88F VSB 1   WCI  -2
$$

WIZ056-057-062-063-064-067-068-012000-
SOUTH CENTRAL WISCONSIN

CITY           SKY/WX    TMP DP  RH WIND       PRES   REMARKS
REEDSBURG      LGT SNOW  14  10  82 NE15G25   30.03F WCI  -1
BARABOO/DELLS  LGT SNOW  13   9  83 NE18G25   30.02F WCI  -4
LONE ROCK      SNOW      16  10  77 NE17G24   30.01F VSB 1/2 WCI   0
MINERAL POINT  LGT SNOW  19  14  79 NE23G33   29.90F WCI   2
MADISON        SNOW      14   9  80 NE23G37   29.96F VSB 1/4 WCI  -5
MIDDLETON      CLOUDY    16  11  80 NE26G33   29.97F VSB 3/4 WCI  -3
WATERTOWN      LGT SNOW  20  15  82 NE16G28   29.95F WCI   6
MONROE         LGT SNOW  19  18  93 N26G36    29.86F WCI   1
JANESVILLE     LGT SNOW  25  19  80 NE22G28   29.87F VSB 1   WCI  10
$$

WIZ051-052-058>065-066-070>072-012000-
SOUTHEAST WISCONSIN

CITY           SKY/WX    TMP DP  RH WIND       PRES   REMARKS
MILWAUKEE      SNOW      22  18  85 NE24G36   29.92F VSB 1/2 WCI   5
WAUKESHA       LGT SNOW  21  18  86 NE12G35   29.93  VSB 1   WCI   9
MILWAUKEE/TIMM LGT SNOW  23  18  80 NE21G30   29.95F VSB 1   WCI   8
RACINE         SNOW      22  18  85 NE29G38   29.90F VSB 1/4 WCI   4
BURLINGTON     LGT SNOW  22  18  85 NE18G30   29.88F WCI   7
KENOSHA        SNOW      22  20  92 NE29G37   29.87F VSB 1/4 WCI   4
FOND DU LAC    HAZE      10   5  80 N28G38    30.06F VSB 1/2 WCI -12
SHEBOYGAN      SNOW      19  15  84 NE28G35   30.01F VSB 1/4 WCI   1
WEST BEND      LGT SNOW  21  16  79 NE20G26   29.97F WCI   6
JUNEAU         LGT SNOW  13   8  83 N18G28    29.99F VSB 1   WCI  -5
$$

LSZ147-162-012000-
LAKE SUPERIOR

STATION/POSITION TIME  TEMP    WIND        PRES    WAVE
                       AIR SEA DIR/SP/G            HT/PER
                 (UTC) (F)     (DEG/KT/KT) (MB)    (FT/S)
DEVILS ISLAND    1900    8      40/ 14/ 16 1029.8F
PORT WING        1840   12      50/ 16/ 23 1028.1F
SAXON HARBOR     1820   15      30/ 19     1026.1F
$$

LMZ867-665-643>646-012000-
LAKE MICHIGAN

STATION/POSITION TIME  TEMP    WIND        PRES    WAVE
                       AIR SEA DIR/SP/G            HT/PER
                 (UTC) (F)     (DEG/KT/KT) (MB)    (FT/S)
NORTHPORT PIER   1800    9      30/ 18/ 24 1024.7F
SISTER BAY       1813    9      30/ 18/ 27   N/A
KEWAUNEE LAKESHO 1900   17      50/ 27/ 37 1019.0F
SHEBOYGAN LAKESH 1900   20      40/ 28/ 31 1018.0F
PORT WASHINGTON  1820   23      40/ 26     1017.3F
MILWAUKEE LAKESH 1900   24      40/ 29/ 35   N/A
KENOSHA   LAKESH 1900   24      50/ 33/ 37 1011.9F
$$

TC  - TEMPERATURE IN CELSIUS
VSB - VISIBILITY IN STATUTE MILES
WCI - WIND CHILL INDEX
HX  - HEAT INDEX



USA.gov is the U.S. government's official web portal to all federal, state and local government web resources and services.